Weather History for Shaw AFB, SC

Change the Weather History Date:

Monday, July 1, 2013

  Actual Average Record
Temperature  
Mean Temperature 76 °F -  
Max Temperature 84 °F 87 °F 105 °F (2012)
Min Temperature 69 °F 68 °F 64 °F (2000)
Cooling Degree Days 10    
Growing Degree Days 26 (Base 50)    
Moisture  
Dew Point 69 °F    
Average Humidity 89    
Maximum Humidity 100    
Minimum Humidity 59    
Precipitation  
Precipitation 0.98 in - - ()
Sea Level Pressure  
Sea Level Pressure 29.88 in    
Wind  
Wind Speed 5 mph (SE)    
Max Wind Speed 16 mph    
Max Gust Speed -    
Visibility 9 miles    
Events Rain , Thunderstorm    
Averages and records for this station are not official NWS values.
T = Trace of Precipitation, MM = Missing Value Source: NWS Daily Summary

Daily Weather History Graph

Daily Weather History Graph

Search for Another Location

Airport:

Trip Planner

Search our weather history database for the weather conditions in past years. The results will help you decide how hot, cold, wet, or windy it might be!

Date:

Astronomy

Jul. 01, 2013 Rise Set
Actual Time 6:14 AM EDT 8:37 PM EDT
Civil Twilight 5:45 AM EDT 9:06 PM EDT
Nautical Twilight 5:09 AM EDT 9:41 PM EDT
Astronomical Twilight 4:30 AM EDT 10:20 PM EDT
Moon 1:32 AM EDT (7/1) 2:59 PM EDT (7/1)
Length of Visible Light 15h 20m
Length of Day
14h 22m
Waning Crescent, 35% of the Moon is Illuminated
Jul 1
Waning Crescent
Jul 8
New
Jul 15
First Quarter
Jul 22
Full
Jul 29
Last Quarter

Hourly Weather History & Observations

Time (EDT) Temp. Heat Index Dew Point Humidity Pressure Visibility Wind Dir Wind Speed Gust Speed Precip Events Conditions
12:18 AM 73.4 °F - 71.6 °F 94% 29.85 in 10.0 mi SSE 4.6 mph - N/A   Overcast
12:43 AM 73.4 °F - 71.6 °F 94% 29.85 in 10.0 mi SE 3.5 mph - N/A   Overcast
12:58 AM 72.5 °F - 72.1 °F 99% 29.85 in 10.0 mi SSE 4.6 mph - N/A   Overcast
1:23 AM 73.4 °F - 71.6 °F 94% 29.84 in 10.0 mi SE 4.6 mph - N/A   Overcast
1:58 AM 73.4 °F - 71.6 °F 94% 29.84 in 10.0 mi SSE 3.5 mph - N/A   Overcast
2:30 AM 71.6 °F - 71.6 °F 100% 29.83 in 10.0 mi ESE 4.6 mph - N/A   Light Drizzle
2:35 AM 71.6 °F - 71.6 °F 100% 29.82 in 6.0 mi ESE 3.5 mph - N/A Rain Light Rain
2:40 AM 71.6 °F - 71.6 °F 100% 29.82 in 6.0 mi East 4.6 mph - N/A Rain Light Rain
2:45 AM 71.6 °F - 71.6 °F 100% 29.82 in 8.0 mi ESE 4.6 mph - N/A Rain Light Rain
2:48 AM 71.6 °F - 71.6 °F 100% 29.81 in 10.0 mi ESE 5.8 mph - N/A   Mostly Cloudy
2:57 AM 71.6 °F - 71.6 °F 100% 29.81 in 10.0 mi ESE 4.6 mph - N/A Thunderstorm Thunderstorm
2:58 AM 71.6 °F - 71.6 °F 100% 29.81 in 10.0 mi ESE 4.6 mph - 0.03 in Thunderstorm Thunderstorm
3:03 AM 71.6 °F - 71.6 °F 100% 29.81 in 10.0 mi Variable 3.5 mph - N/A Thunderstorm Thunderstorm
3:04 AM 71.6 °F - 71.6 °F 100% 29.83 in 10.0 mi WSW 11.5 mph - N/A Thunderstorm Thunderstorm
3:06 AM 71.6 °F - 71.6 °F 100% 29.83 in 6.0 mi WSW 16.1 mph - N/A Rain , Thunderstorm Light Thunderstorms and Rain
3:11 AM 71.6 °F - 69.8 °F 94% 29.82 in 2.0 mi West 13.8 mph - N/A Rain , Thunderstorm Heavy Thunderstorms and Rain
3:16 AM 71.6 °F - 69.8 °F 94% 29.81 in 1.2 mi SW 8.1 mph - N/A Rain , Thunderstorm Heavy Thunderstorms and Rain
3:20 AM 71.6 °F - 69.8 °F 94% 29.82 in 1.5 mi SSW 8.1 mph - N/A Rain Heavy Rain
3:25 AM 71.6 °F - 69.8 °F 94% 29.82 in 4.0 mi SW 10.4 mph - N/A Rain Light Rain
3:30 AM 71.6 °F - 69.8 °F 94% 29.83 in 8.0 mi SSW 10.4 mph - N/A Rain , Thunderstorm Light Rain
3:45 AM 71.6 °F - 68.0 °F 88% 29.84 in 10.0 mi South 5.8 mph - N/A Rain Light Rain
3:50 AM 71.6 °F - 68.0 °F 88% 29.84 in 10.0 mi WSW 5.8 mph - N/A   Mostly Cloudy
3:58 AM 70.9 °F - 68.7 °F 93% 29.85 in 10.0 mi WSW 6.9 mph - 0.32 in   Overcast
3:59 AM 71.6 °F - 68.0 °F 88% 29.85 in 9.0 mi WSW 6.9 mph - N/A Rain Light Rain
4:04 AM 69.8 °F - 68.0 °F 94% 29.85 in 2.0 mi Variable 3.5 mph - N/A Rain Heavy Rain
4:09 AM 69.8 °F - 68.0 °F 94% 29.84 in 1.8 mi SSW 3.5 mph - N/A Rain Light Rain
4:14 AM 69.8 °F - 68.0 °F 94% 29.84 in 6.0 mi WSW 1.2 mph - N/A Rain Light Rain
4:19 AM 69.8 °F - 68.0 °F 94% 29.84 in 10.0 mi SSW 1.2 mph - N/A Rain Light Rain
4:24 AM 69.8 °F - 68.0 °F 94% 29.83 in 8.0 mi Calm Calm - N/A Rain Rain
4:29 AM 69.8 °F - 68.0 °F 94% 29.83 in 7.0 mi Calm Calm - N/A Rain Light Rain
4:34 AM 69.8 °F - 68.0 °F 94% 29.83 in 8.0 mi Calm Calm - N/A Rain Light Rain
4:39 AM 69.8 °F - 68.0 °F 94% 29.83 in 7.0 mi SSW 3.5 mph - N/A Rain Light Rain
4:44 AM 69.8 °F - 68.0 °F 94% 29.86 in 4.0 mi WSW 6.9 mph - N/A Rain Rain
4:49 AM 69.8 °F - 68.0 °F 94% 29.87 in 1.8 mi SW 5.8 mph - N/A Rain Heavy Rain
4:54 AM 69.8 °F - 68.0 °F 94% 29.85 in 1.5 mi Variable 2.3 mph - N/A Rain Heavy Rain
4:56 AM 69.8 °F - 68.0 °F 94% 29.85 in 10.0 mi Calm Calm - N/A Rain Heavy Rain
4:59 AM 70.0 °F - 67.6 °F 92% 29.84 in 2.0 mi Calm Calm - 0.36 in Rain Heavy Rain
5:04 AM 69.8 °F - 68.0 °F 94% 29.84 in 3.0 mi East 2.3 mph - N/A Rain Light Rain
5:09 AM 69.8 °F - 68.0 °F 94% 29.84 in 7.0 mi East 2.3 mph - N/A Rain Light Rain
5:14 AM 69.8 °F - 68.0 °F 94% 29.84 in 8.0 mi East 3.5 mph - N/A Rain Rain
5:24 AM 69.8 °F - 68.0 °F 94% 29.85 in 10.0 mi ESE 3.5 mph - N/A Rain Light Rain
5:25 AM 69.8 °F - 68.0 °F 94% 29.85 in 10.0 mi ESE 3.5 mph - N/A Rain Light Rain
5:30 AM 69.8 °F - 68.0 °F 94% 29.84 in 10.0 mi East 4.6 mph - N/A Rain Light Rain
5:35 AM 69.8 °F - 68.0 °F 94% 29.84 in 10.0 mi East 3.5 mph - N/A   Light Drizzle
5:40 AM 69.8 °F - 68.0 °F 94% 29.85 in 10.0 mi East 2.3 mph - N/A   Scattered Clouds
5:42 AM 69.8 °F - 68.0 °F 94% 29.85 in 10.0 mi ENE 1.2 mph - N/A Rain Light Rain
5:58 AM 69.8 °F - 68.4 °F 95% 29.86 in 10.0 mi ESE 2.3 mph - 0.05 in Rain Light Rain
5:59 AM 69.8 °F - 68.0 °F 94% 29.86 in 10.0 mi East 2.3 mph - N/A Rain Light Rain
6:04 AM 69.8 °F - 68.0 °F 94% 29.86 in 10.0 mi Calm Calm - N/A Rain Light Rain
6:09 AM 69.8 °F - 68.0 °F 94% 29.87 in 10.0 mi South 4.6 mph - N/A Rain Rain
6:14 AM 69.8 °F - 68.0 °F 94% 29.88 in 10.0 mi South 4.6 mph - N/A Rain Rain
6:23 AM 69.8 °F - 68.0 °F 94% 29.87 in 10.0 mi ESE 5.8 mph - N/A Rain Light Rain
6:58 AM 69.6 °F - 68.2 °F 95% 29.88 in 10.0 mi SSE 2.3 mph - 0.09 in Rain Light Rain
6:59 AM 69.8 °F - 68.0 °F 94% 29.88 in 10.0 mi SSE 3.5 mph - N/A   Overcast
7:38 AM 69.8 °F - 68.0 °F 94% 29.88 in 10.0 mi SE 3.5 mph - N/A Rain Light Rain
7:58 AM 69.1 °F - 67.3 °F 94% 29.89 in 10.0 mi SE 3.5 mph - 0.03 in Rain Rain
7:59 AM 69.8 °F - 68.0 °F 94% 29.89 in 10.0 mi SE 4.6 mph - N/A Rain Rain
8:04 AM 69.8 °F - 68.0 °F 94% 29.89 in 10.0 mi SSE 3.5 mph - N/A Rain Light Rain
8:15 AM 69.8 °F - 68.0 °F 94% 29.89 in 10.0 mi ESE 3.5 mph - N/A   Overcast
8:24 AM 69.8 °F - 68.0 °F 94% 29.89 in 10.0 mi ESE 5.8 mph - N/A   Overcast
8:58 AM 70.0 °F - 68.2 °F 94% 29.89 in 10.0 mi East 4.6 mph - 0.03 in   Overcast
9:29 AM 71.6 °F - 68.0 °F 88% 29.91 in 10.0 mi ESE 4.6 mph - N/A Rain Light Rain
9:43 AM 71.6 °F - 68.0 °F 88% 29.91 in 10.0 mi ESE 3.5 mph - N/A   Overcast
9:51 AM 71.6 °F - 68.0 °F 88% 29.91 in 10.0 mi SE 5.8 mph - N/A Rain Light Rain
9:58 AM 70.7 °F - 67.5 °F 89% 29.91 in 10.0 mi ESE 4.6 mph - 0.00 in   Light Drizzle
10:24 AM 73.4 °F - 68.0 °F 83% 29.90 in 10.0 mi ESE 2.3 mph - N/A   Overcast
10:58 AM 74.3 °F - 67.3 °F 79% 29.91 in 10.0 mi SE 2.3 mph - 0.00 in   Overcast
11:58 AM 76.3 °F - 67.6 °F 74% 29.91 in 10.0 mi Variable 2.3 mph - N/A   Mostly Cloudy
12:33 PM 78.8 °F - 68.0 °F 69% 29.91 in 10.0 mi Variable 1.2 mph - N/A   Mostly Cloudy
12:58 PM 80.1 °F 82.7 °F 68.0 °F 67% 29.92 in 10.0 mi Variable 3.5 mph - N/A   Mostly Cloudy
1:13 PM 78.8 °F - 68.0 °F 69% 29.92 in 10.0 mi NNE 1.2 mph - N/A   Overcast
1:43 PM 80.6 °F 83.2 °F 68.0 °F 65% 29.91 in 10.0 mi East 3.5 mph - N/A   Mostly Cloudy
1:58 PM 81.9 °F 84.6 °F 67.6 °F 62% 29.92 in 10.0 mi ESE 3.5 mph - N/A   Mostly Cloudy
2:03 PM 82.4 °F 85.4 °F 68.0 °F 62% 29.91 in 10.0 mi SSE 4.6 mph - N/A   Mostly Cloudy
2:08 PM 82.4 °F 85.4 °F 68.0 °F 62% 29.91 in 10.0 mi Variable 3.5 mph - N/A   Mostly Cloudy
2:18 PM 82.4 °F 85.4 °F 68.0 °F 62% 29.91 in 10.0 mi Variable 2.3 mph - N/A   Mostly Cloudy
2:58 PM 82.8 °F 85.3 °F 66.9 °F 59% 29.89 in 10.0 mi Variable 2.3 mph - N/A   Mostly Cloudy
3:58 PM 81.9 °F 84.8 °F 68.0 °F 63% 29.89 in 10.0 mi SSE 4.6 mph - N/A   Clear
4:26 PM 82.4 °F 85.4 °F 68.0 °F 62% 29.90 in 10.0 mi SE 5.8 mph - N/A   Light Drizzle
4:35 PM 82.4 °F 86.3 °F 69.8 °F 66% 29.91 in 10.0 mi SE 5.8 mph - N/A   Clear
4:53 PM 80.6 °F 83.9 °F 69.8 °F 70% 29.91 in 10.0 mi SSE 6.9 mph - N/A Rain Light Rain
4:58 PM 80.6 °F 83.9 °F 70.0 °F 70% 29.90 in 10.0 mi SSE 4.6 mph - 0.01 in Rain Light Rain
5:08 PM 78.8 °F - 71.6 °F 78% 29.91 in 10.0 mi South 5.8 mph - N/A   Mostly Cloudy
5:26 PM 78.8 °F - 71.6 °F 78% 29.91 in 10.0 mi SSW 5.8 mph - N/A   Light Drizzle
5:41 PM 77.0 °F - 71.6 °F 83% 29.92 in 10.0 mi SSE 10.4 mph - N/A Rain Light Rain
5:47 PM 77.0 °F - 71.6 °F 83% 29.92 in 10.0 mi SE 11.5 mph - N/A Rain Light Rain
5:58 PM 75.4 °F - 70.7 °F 85% 29.92 in 10.0 mi SE 8.1 mph - 0.01 in Rain Light Rain
6:03 PM 75.2 °F - 69.8 °F 83% 29.93 in 10.0 mi SSE 9.2 mph - N/A Rain Light Rain
6:43 PM 73.4 °F - 69.8 °F 88% 29.92 in 10.0 mi SSE 10.4 mph - N/A Rain Light Rain
6:53 PM 73.4 °F - 69.8 °F 88% 29.92 in 10.0 mi SE 9.2 mph - N/A   Light Drizzle
6:55 PM 73.4 °F - 71.6 °F 94% 29.92 in 10.0 mi SE 9.2 mph - N/A   Scattered Clouds
6:58 PM 73.4 °F - 70.9 °F 92% 29.92 in 10.0 mi SE 8.1 mph - 0.05 in   Scattered Clouds
7:03 PM 73.4 °F - 71.6 °F 94% 29.91 in 10.0 mi SE 6.9 mph - N/A   Partly Cloudy
7:33 PM 73.4 °F - 71.6 °F 94% 29.93 in 10.0 mi ESE 8.1 mph - N/A   Mostly Cloudy
7:58 PM 73.0 °F - 70.9 °F 93% 29.93 in 10.0 mi ESE 5.8 mph - N/A   Scattered Clouds
8:18 PM 73.4 °F - 71.6 °F 94% 29.94 in 10.0 mi SE 5.8 mph - N/A   Mostly Cloudy
8:23 PM 73.4 °F - 71.6 °F 94% 29.94 in 10.0 mi SE 5.8 mph - N/A   Mostly Cloudy
8:58 PM 73.0 °F - 70.9 °F 93% 29.97 in 10.0 mi SE 6.9 mph - N/A   Overcast
9:28 PM 73.4 °F - 71.6 °F 94% 29.98 in 10.0 mi SSE 8.1 mph - N/A   Overcast
9:33 PM 73.4 °F - 71.6 °F 94% 29.98 in 10.0 mi SSE 6.9 mph - N/A   Overcast
9:53 PM 73.4 °F - 71.6 °F 94% 29.98 in 10.0 mi SSE 5.8 mph - N/A   Overcast
9:58 PM 73.0 °F - 71.2 °F 94% 29.98 in 10.0 mi SSE 5.8 mph - N/A   Overcast
10:08 PM 73.4 °F - 71.6 °F 94% 29.98 in 10.0 mi SSE 3.5 mph - N/A   Mostly Cloudy
10:13 PM 73.4 °F - 71.6 °F 94% 29.99 in 10.0 mi SSE 4.6 mph - N/A   Scattered Clouds
10:53 PM 73.4 °F - 69.8 °F 88% 29.99 in 10.0 mi SSE 6.9 mph - N/A   Mostly Cloudy
10:58 PM 73.0 °F - 70.7 °F 92% 29.99 in 10.0 mi SSE 8.1 mph - N/A   Mostly Cloudy
11:18 PM 73.4 °F - 69.8 °F 88% 30.00 in 10.0 mi SSE 5.8 mph - N/A   Overcast
11:53 PM 73.4 °F - 69.8 °F 88% 30.00 in 10.0 mi SSE 5.8 mph - N/A   Overcast
11:58 PM 73.2 °F - 70.5 °F 91% 30.00 in 10.0 mi SSE 5.8 mph - N/A   Overcast